Time,TemperatureF,DewpointF,PressureIn,WindDirection,WindDirectionDegrees,WindSpeedMPH,WindSpeedGustMPH,Humidity,HourlyPrecipIn,Conditions,Clouds,dailyrainin,SoftwareType,DateUTC
2013-03-05 00:14:00,32.5,-57.8,29.91,NNW,337,5.3,-999.0,1,-99.99,,,0.00,Acu-Link.com,2013-03-05 05:14:00,
2013-03-05 00:30:00,32.5,-57.8,29.91,North,0,6.3,-999.0,1,-99.99,,,0.00,Acu-Link.com,2013-03-05 05:30:00,
2013-03-05 00:45:00,32.2,-57.9,29.92,NNW,337,3.7,-999.0,1,-99.99,,,0.00,Acu-Link.com,2013-03-05 05:45:00,
2013-03-05 01:01:00,32.0,-58.1,29.92,West,270,3.2,-999.0,1,-99.99,,,0.00,Acu-Link.com,2013-03-05 06:01:00,
2013-03-05 01:16:00,31.1,-58.6,29.94,WSW,247,3.2,-999.0,1,-99.99,,,0.00,Acu-Link.com,2013-03-05 06:16:00,
2013-03-05 01:34:00,30.4,-59.1,29.94,WNW,292,3.7,-999.0,1,-99.99,,,0.00,Acu-Link.com,2013-03-05 06:34:00,
2013-03-05 01:53:00,29.8,-59.4,29.95,North,0,4.2,-999.0,1,-99.99,,,0.00,Acu-Link.com,2013-03-05 06:53:00,
2013-03-05 02:08:00,30.4,-59.1,29.95,NW,315,5.8,-999.0,1,-99.99,,,0.00,Acu-Link.com,2013-03-05 07:08:00,
2013-03-05 02:23:00,30.2,-59.2,29.95,NW,315,3.7,-999.0,1,-99.99,,,0.00,Acu-Link.com,2013-03-05 07:23:00,
2013-03-05 02:40:00,30.2,-59.2,29.95,North,0,4.2,-999.0,1,-99.99,,,0.00,Acu-Link.com,2013-03-05 07:40:00,
2013-03-05 02:56:00,30.2,-59.2,29.95,NNW,337,2.2,-999.0,1,-99.99,,,0.00,Acu-Link.com,2013-03-05 07:56:00,
2013-03-05 03:11:00,30.2,-59.2,29.95,NNW,337,3.2,-999.0,1,-99.99,,,0.00,Acu-Link.com,2013-03-05 08:11:00,
2013-03-05 03:28:00,29.8,-59.4,29.95,WNW,292,3.7,-999.0,1,-99.99,,,0.00,Acu-Link.com,2013-03-05 08:28:00,
2013-03-05 03:45:00,29.7,-59.5,29.95,WNW,292,4.2,-999.0,1,-99.99,,,0.00,Acu-Link.com,2013-03-05 08:45:00,
2013-03-05 04:02:00,29.7,-59.5,29.96,WNW,292,3.2,-999.0,1,-99.99,,,0.00,Acu-Link.com,2013-03-05 09:02:00,
2013-03-05 04:19:00,30.0,-59.3,29.96,West,270,5.8,-999.0,1,-99.99,,,0.00,Acu-Link.com,2013-03-05 09:19:00,
2013-03-05 04:34:00,30.4,-59.1,29.96,NNW,337,6.8,-999.0,1,-99.99,,,0.00,Acu-Link.com,2013-03-05 09:34:00,
2013-03-05 04:49:00,30.6,-58.9,29.96,NW,315,10.9,-999.0,1,-99.99,,,0.00,Acu-Link.com,2013-03-05 09:49:00,
2013-03-05 05:04:00,30.2,-59.2,29.96,NNE,22,6.8,-999.0,1,-99.99,,,0.00,Acu-Link.com,2013-03-05 10:04:00,
2013-03-05 05:22:00,29.3,-59.8,29.98,NW,315,3.7,-999.0,1,-99.99,,,0.00,Acu-Link.com,2013-03-05 10:22:00,
2013-03-05 05:39:00,29.1,-59.9,29.99,West,270,2.7,-999.0,1,-99.99,,,0.00,Acu-Link.com,2013-03-05 10:39:00,
2013-03-05 05:56:00,28.6,-60.2,29.99,WNW,292,3.7,-999.0,1,-99.99,,,0.00,Acu-Link.com,2013-03-05 10:56:00,
2013-03-05 06:12:00,28.2,-60.4,29.98,WNW,292,4.7,-999.0,1,-99.99,,,0.00,Acu-Link.com,2013-03-05 11:12:00,
2013-03-05 06:27:00,28.2,-60.4,29.99,WNW,292,3.7,-999.0,1,-99.99,,,0.00,Acu-Link.com,2013-03-05 11:27:00,
2013-03-05 06:46:00,28.9,-60.0,29.99,NNE,22,4.2,-999.0,1,-99.99,,,0.00,Acu-Link.com,2013-03-05 11:46:00,
2013-03-05 07:03:00,29.8,-59.4,30.00,NW,315,4.2,-999.0,1,-99.99,,,0.00,Acu-Link.com,2013-03-05 12:03:00,
2013-03-05 07:20:00,30.0,-59.3,29.99,NW,315,8.3,-999.0,1,-99.99,,,0.00,Acu-Link.com,2013-03-05 12:20:00,
2013-03-05 07:36:00,31.1,-58.6,30.00,WNW,292,5.8,-999.0,1,-99.99,,,0.00,Acu-Link.com,2013-03-05 12:36:00,
2013-03-05 07:51:00,32.7,-57.6,30.00,WNW,292,5.8,-999.0,1,-99.99,,,0.00,Acu-Link.com,2013-03-05 12:51:00,
2013-03-05 08:06:00,34.0,-56.8,30.00,NW,315,8.3,-999.0,1,-99.99,,,0.00,Acu-Link.com,2013-03-05 13:06:00,
2013-03-05 08:22:00,34.2,-56.7,29.99,NNW,337,5.8,-999.0,1,-99.99,,,0.00,Acu-Link.com,2013-03-05 13:22:00,
2013-03-05 08:38:00,34.5,-56.5,29.99,NW,315,8.9,-999.0,1,-99.99,,,0.00,Acu-Link.com,2013-03-05 13:38:00,
2013-03-05 08:53:00,35.8,-55.7,29.99,NW,315,7.8,-999.0,1,-99.99,,,0.00,Acu-Link.com,2013-03-05 13:53:00,
2013-03-05 09:08:00,36.3,-55.4,29.99,NNE,22,4.7,-999.0,1,-99.99,,,0.00,Acu-Link.com,2013-03-05 14:08:00,
2013-03-05 09:27:00,37.0,-55.0,29.99,North,0,6.3,-999.0,1,-99.99,,,0.00,Acu-Link.com,2013-03-05 14:27:00,
2013-03-05 09:43:00,38.3,-54.2,29.99,NNW,337,6.3,-999.0,1,-99.99,,,0.00,Acu-Link.com,2013-03-05 14:43:00,
2013-03-05 09:59:00,38.5,-54.0,29.99,NNW,337,6.8,-999.0,1,-99.99,,,0.00,Acu-Link.com,2013-03-05 14:59:00,
2013-03-05 10:15:00,38.7,-53.9,29.99,NNW,337,6.3,-999.0,1,-99.99,,,0.00,Acu-Link.com,2013-03-05 15:15:00,
2013-03-05 10:31:00,39.9,-53.2,29.98,North,0,7.3,-999.0,1,-99.99,,,0.00,Acu-Link.com,2013-03-05 15:31:00,
2013-03-05 10:48:00,40.1,-53.0,29.98,NNW,337,5.8,-999.0,1,-99.99,,,0.00,Acu-Link.com,2013-03-05 15:48:00,
2013-03-05 11:03:00,39.2,-53.6,29.97,NW,315,4.7,-999.0,1,-99.99,,,0.00,Acu-Link.com,2013-03-05 16:03:00,
2013-03-05 11:21:00,40.5,-52.8,29.96,ENE,67,5.8,-999.0,1,-99.99,,,0.00,Acu-Link.com,2013-03-05 16:21:00,
2013-03-05 11:37:00,40.8,-52.6,29.95,NNW,337,4.2,-999.0,1,-99.99,,,0.00,Acu-Link.com,2013-03-05 16:37:00,
2013-03-05 11:52:00,41.4,-52.2,29.96,NE,45,5.8,-999.0,1,-99.99,,,0.00,Acu-Link.com,2013-03-05 16:52:00,
2013-03-05 12:07:00,40.6,-52.7,29.95,NNE,22,4.7,-999.0,1,-99.99,,,0.00,Acu-Link.com,2013-03-05 17:07:00,
2013-03-05 12:22:00,40.6,-52.7,29.95,ENE,67,5.8,-999.0,1,-99.99,,,0.00,Acu-Link.com,2013-03-05 17:22:00,
2013-03-05 12:39:00,41.5,-52.2,29.95,NE,45,4.7,-999.0,1,-99.99,,,0.00,Acu-Link.com,2013-03-05 17:39:00,
2013-03-05 12:54:00,41.2,-52.4,29.95,NE,45,7.3,-999.0,1,-99.99,,,0.00,Acu-Link.com,2013-03-05 17:54:00,
2013-03-05 13:11:00,40.8,-52.6,29.94,ENE,67,4.7,-999.0,1,-99.99,,,0.00,Acu-Link.com,2013-03-05 18:11:00,
2013-03-05 13:27:00,41.2,-52.4,29.93,East,90,5.8,-999.0,1,-99.99,,,0.00,Acu-Link.com,2013-03-05 18:27:00,
2013-03-05 13:43:00,41.5,-52.2,29.94,North,0,6.3,-999.0,1,-99.99,,,0.00,Acu-Link.com,2013-03-05 18:43:00,
2013-03-05 14:00:00,42.3,-51.7,29.93,SSW,202,7.8,-999.0,1,-99.99,,,0.00,Acu-Link.com,2013-03-05 19:00:00,
2013-03-05 14:15:00,41.2,-52.4,29.92,ENE,67,2.7,-999.0,1,-99.99,,,0.00,Acu-Link.com,2013-03-05 19:15:00,
2013-03-05 14:32:00,40.8,-52.6,29.92,East,90,5.8,-999.0,1,-99.99,,,0.00,Acu-Link.com,2013-03-05 19:32:00,
2013-03-05 14:47:00,41.2,-52.4,29.91,NE,45,4.7,-999.0,1,-99.99,,,0.00,Acu-Link.com,2013-03-05 19:47:00,
2013-03-05 15:04:00,41.5,-52.2,29.92,ESE,112,3.7,-999.0,1,-99.99,,,0.00,Acu-Link.com,2013-03-05 20:04:00,
2013-03-05 15:19:00,41.7,-52.1,29.92,East,90,6.3,-999.0,1,-99.99,,,0.00,Acu-Link.com,2013-03-05 20:19:00,
2013-03-05 15:36:00,41.9,-51.9,29.91,ENE,67,4.2,-999.0,1,-99.99,,,0.00,Acu-Link.com,2013-03-05 20:36:00,
2013-03-05 15:52:00,41.2,-52.4,29.90,SSE,157,3.2,-999.0,1,-99.99,,,0.00,Acu-Link.com,2013-03-05 20:52:00,
2013-03-05 16:09:00,41.5,-52.2,29.90,ESE,112,4.7,-999.0,1,-99.99,,,0.00,Acu-Link.com,2013-03-05 21:09:00,
2013-03-05 16:24:00,40.3,-52.9,29.91,ESE,112,5.3,-999.0,1,-99.99,,,0.00,Acu-Link.com,2013-03-05 21:24:00,
2013-03-05 16:40:00,40.5,-52.8,29.90,ESE,112,6.3,-999.0,1,-99.99,,,0.00,Acu-Link.com,2013-03-05 21:40:00,
2013-03-05 16:55:00,39.2,-53.6,29.91,SE,135,5.8,-999.0,1,-99.99,,,0.00,Acu-Link.com,2013-03-05 21:55:00,
2013-03-05 17:13:00,39.2,-35.2,29.92,South,180,5.3,-999.0,3,-99.99,,,0.00,Acu-Link.com,2013-03-05 22:13:00,
2013-03-05 17:29:00,38.7,38.2,29.91,SSE,157,3.2,-999.0,98,-99.99,,,0.00,Acu-Link.com,2013-03-05 22:29:00,
2013-03-05 17:45:00,37.9,-54.4,29.92,SSW,202,4.7,-999.0,1,-99.99,,,0.00,Acu-Link.com,2013-03-05 22:45:00,
2013-03-05 18:01:00,37.2,-54.8,29.93,SSW,202,3.2,-999.0,1,-99.99,,,0.00,Acu-Link.com,2013-03-05 23:01:00,
2013-03-05 18:17:00,36.9,-55.0,29.92,SE,135,3.7,-999.0,1,-99.99,,,0.00,Acu-Link.com,2013-03-05 23:17:00,
2013-03-05 18:32:00,36.9,-55.0,29.92,South,180,3.2,-999.0,1,-99.99,,,0.00,Acu-Link.com,2013-03-05 23:32:00,
2013-03-05 18:48:00,36.9,-55.0,29.93,SSW,202,2.7,-999.0,1,-99.99,,,0.00,Acu-Link.com,2013-03-05 23:48:00,
2013-03-05 19:06:00,37.0,-55.0,29.92,SSE,157,2.7,-999.0,1,-99.99,,,0.00,Acu-Link.com,2013-03-06 00:06:00,
2013-03-05 19:21:00,37.2,-54.8,29.91,WSW,247,3.2,-999.0,1,-99.99,,,0.00,Acu-Link.com,2013-03-06 00:21:00,
2013-03-05 19:37:00,37.2,-54.8,29.90,SSW,202,1.7,-999.0,1,-99.99,,,0.00,Acu-Link.com,2013-03-06 00:37:00,
2013-03-05 19:52:00,37.4,-54.7,29.89,South,180,5.3,-999.0,1,-99.99,,,0.00,Acu-Link.com,2013-03-06 00:52:00,
2013-03-05 20:07:00,37.6,-54.6,29.89,SE,135,2.7,-999.0,1,-99.99,,,0.00,Acu-Link.com,2013-03-06 01:07:00,
2013-03-05 20:23:00,37.6,-54.6,29.88,SE,135,2.7,-999.0,1,-99.99,,,0.00,Acu-Link.com,2013-03-06 01:23:00,
2013-03-05 20:38:00,37.8,-54.5,29.88,South,180,4.2,-999.0,1,-99.99,,,0.00,Acu-Link.com,2013-03-06 01:38:00,
2013-03-05 20:53:00,37.8,-54.5,29.87,South,180,2.7,-999.0,1,-99.99,,,0.00,Acu-Link.com,2013-03-06 01:53:00,
2013-03-05 21:09:00,37.8,-54.5,29.87,SSE,157,4.2,-999.0,1,-99.99,,,0.00,Acu-Link.com,2013-03-06 02:09:00,
2013-03-05 21:24:00,37.8,-54.5,29.86,SE,135,4.2,-999.0,1,-99.99,,,0.00,Acu-Link.com,2013-03-06 02:24:00,
2013-03-05 21:39:00,37.9,-54.4,29.87,SE,135,3.2,-999.0,1,-99.99,,,0.00,Acu-Link.com,2013-03-06 02:39:00,
2013-03-05 21:54:00,37.9,-54.4,29.86,ESE,112,3.7,-999.0,1,-99.99,,,0.00,Acu-Link.com,2013-03-06 02:54:00,
2013-03-05 22:09:00,37.9,-54.4,29.85,ESE,112,3.2,-999.0,1,-99.99,,,0.00,Acu-Link.com,2013-03-06 03:09:00,
2013-03-05 22:25:00,38.1,-54.3,29.85,ESE,112,4.2,-999.0,1,-99.99,,,0.00,Acu-Link.com,2013-03-06 03:25:00,
2013-03-05 22:40:00,38.3,-54.2,29.84,East,90,4.7,-999.0,1,-99.99,,,0.00,Acu-Link.com,2013-03-06 03:40:00,
2013-03-05 22:55:00,38.7,-53.9,29.82,SE,135,4.2,-999.0,1,-99.99,,,0.00,Acu-Link.com,2013-03-06 03:55:00,
2013-03-05 23:10:00,39.0,-53.7,29.81,SE,135,3.7,-999.0,1,-99.99,,,0.00,Acu-Link.com,2013-03-06 04:10:00,
2013-03-05 23:26:00,39.2,-53.6,29.80,ESE,112,5.3,-999.0,1,-99.99,,,0.00,Acu-Link.com,2013-03-06 04:26:00,
2013-03-05 23:41:00,39.6,-53.3,29.79,ESE,112,4.7,-999.0,1,-99.99,,,0.00,Acu-Link.com,2013-03-06 04:41:00,
2013-03-05 23:56:00,39.9,-53.2,29.77,ESE,112,4.2,-999.0,1,-99.99,,,0.00,Acu-Link.com,2013-03-06 04:56:00,